Regional Weather Roundup
Issued by NWS

Home | Current Version | Previous Version | Text Only | Print | Product List | Glossary On
Versions: 1 2 3 4 5 6 7 8 9 10 11 12 13 14 15 16 17 18 19 20 21 22 23 24 25 26 27
000
ASUS42 KTBW 011216
RWRFL
FLORIDA REGIONAL WEATHER ROUNDUP
NATIONAL WEATHER SERVICE TAMPA BAY RUSKIN FL
800 AM EDT SUN MAY 01 2016

NOTE: "FAIR" INDICATES FEW OR NO CLOUDS BELOW 12,000 FEET WITH NO
SIGNIFICANT WEATHER AND/OR OBSTRUCTIONS TO VISIBILITY.

FLZ001>010-012>015-112-114-115-011300-
PANHANDLE FLORIDA

CITY           SKY/WX    TMP DP  RH WIND       PRES   REMARKS
PENSACOLA      MOSUNNY   75  72  90 SE8       29.95R
MILTON NAS     LGT RAIN  72  72 100 SE6       29.96  VSB 1/4
CRESTVIEW      CLOUDY    73  72  96 E3        29.99R FOG
DUKE FIELD     FAIR      73  72  98 SE6       29.96R
VALPARAISO     PTSUNNY   75  73  94 SE9       29.97R
MARY ESTHER    CLOUDY    74  74  98 SE6       29.95R
PANAMA CITY    CLOUDY    73  72  96 E5        29.97R FOG
TYNDALL AFB    CLOUDY    73  72  97 E8        29.98R
APALACHICOLA   SUNNY     75  73  93 SE9       29.98R

STATION/POSITION SKY/WX   TEMP    WIND        PRES    WAVE   SWELL
                          AIR SEA DIR/SP/G            HT/PER HT/PER
                          (F)     (DEG/KT/KT) (MB)    (FT/S) (FT/S)
30.1N   87.6W              75 74  130/ 10/ 12 1012.9R   4/ 7   3/ 7
29.2N   88.2W              76 74  150/ 10/ 12 1012.5R
28.8N   86.0W              79 78  150/ 16/ 19 1014.3R   4/ 7
PANAMA CITY BEAC           76 77  130/ 13/ 16 1014.9R
TOWER C                    75     150/ 11/ 13 1016.0R
28.5N   84.5W              76 75  140/ 14/ 16 1015.0R   3/ 6   2/ 6

$$
FLZ011-016>038-118-127-128-134-139-239-011300-
NORTH FLORIDA

CITY           SKY/WX    TMP DP  RH WIND       PRES   REMARKS
MARIANNA       PTSUNNY   72  72 100 NE5       30.00R
TALLAHASSEE    PTSUNNY   74  70  87 E5        30.00R
PERRY          CLOUDY    73  68  86 E6        30.03R
LIVE OAK       FAIR      73  72  94 SE5       30.05R
CROSS CITY       N/A     72  66  81 VRB5      30.02R
LAKE CITY      FAIR      70  70 100 SE5       30.04R
GAINESVILLE    CLOUDY    72  69  90 SE6       30.04R
WILLISTON      FAIR      72  72 100 CALM      30.05R
PALATKA        FAIR      68  63  83 SE3       30.04S
MAYPORT NAS    CLOUDY    71  71 100 S8        30.04R
JACKSONVILLE   PTSUNNY   75  71  87 S7        30.04R
JAX NAS        CLOUDY    76  70  82 S9        30.05R
JAX CECIL      SUNNY     72  70  94 SE6       30.05R
FERNANDINA BEA FAIR      77  72  83 S7        30.04R
ST AUGUSTINE   CLOUDY    74  71  91 SE7       30.05R
PALM COAST     SUNNY     70  70 100 CALM      30.05R

STATION/POSITION SKY/WX   TEMP    WIND        PRES    WAVE   SWELL
                          AIR SEA DIR/SP/G            HT/PER HT/PER
                          (F)     (DEG/KT/KT) (MB)    (FT/S) (FT/S)
SHELL POINT                78     160/ 10/ 12 1014.0
KEATON BEACH               72     100/  7/  9 1016.0R
CEDAR KEY                  76     140/ 14/ 16 1017.0R
FERNANDINA                 73 73  150/  4/  6 1016.6R
30.7N   81.3W                 72                N/A     2/11
MAYPORT                    73 72  180/  3/  4 1017.0R
ST AUGUSTINE               72 71  170/  5/  5 1018.0R

$$
FLZ040-043>046-052-053-057-058-063-144-011300-
INTERIOR CENTRAL FLORIDA

CITY           SKY/WX    TMP DP  RH WIND       PRES   REMARKS
OCALA          SUNNY     70  66  88 CALM      30.04R
THE VILLAGES     N/A     73  72  94 CALM      29.94R
LEESBURG       CLOUDY    73  68  84 SE8       30.05R
SANFORD        MOSUNNY   73  69  87 SE6       30.04R
ORLANDO EXEC   PTSUNNY   74  68  81 SE6       30.04R
ORLANDO INTL   PTSUNNY   72  67  84 E6        30.04R
KISSIMMEE      MOSUNNY   73  70  88 SE6       30.03R
WINTER HAVEN   MOSUNNY   72  68  87 SE9       30.05R
LAKELAND       PTSUNNY   72  66  83 SE5       30.04R
BARTOW         MOSUNNY   66  66 100 E5        30.04R
OKEECHOBEE     SUNNY     66  66 100 E3        30.03R

$$
FLZ041-047-054-059-064-141-147-011300-
EAST CENTRAL FLORIDA

CITY           SKY/WX    TMP DP  RH WIND       PRES   REMARKS
DAYTONA BEACH  PTSUNNY   74  72  93 CALM      30.05R
DELAND           N/A     72  68  88 CALM      30.06R
NEW SMYRNA BEA MOSUNNY   75  70  83 SE9       30.05R
JFK SPACE CTR  SUNNY     75  66  74 SE6       30.03R
TITUSVILLE     MOSUNNY   75  70  83 SE9       30.04R
CAPE CANAVERAL SUNNY     76  66  71 SE15      30.02R
PATRICK AFB    SUNNY     77  68  73 SE15      30.03R
MELBOURNE      MOSUNNY   78  67  68 SE8       30.03R
VERO BEACH     MOSUNNY   77  67  71 SE14      30.03R
FT PIERCE      MOSUNNY   76  67  73 SE14      30.02R
STUART         MOSUNNY   81  70  69 SE17      30.03R

STATION/POSITION SKY/WX   TEMP    WIND        PRES    WAVE   SWELL
                          AIR SEA DIR/SP/G            HT/PER HT/PER
                          (F)     (DEG/KT/KT) (MB)    (FT/S) (FT/S)
28.5N   80.2W              77 77  130/ 16/ 19 1016.8R
28.9N   78.5W              77 77  140/ 14/ 16 1017.3R
TRIDENT PIER               76 79  130/  9/ 13 1016.7R
28.4N   80.5W                 77                N/A     3/ 5
27.5N   80.2W                 77                N/A     3/ 5

$$
FLZ050-056-061-142-242-148-248-149-249-151-251-155-255-
160-260-011300-
WEST CENTRAL FLORIDA

CITY           SKY/WX    TMP DP  RH WIND       PRES   REMARKS
CRYSTAL RIVER  FAIR      70  66  88 CALM      30.03R
INVERNESS      FAIR      68  68 100 CALM      30.03S
BROOKSVILLE    MOSUNNY   69  67  93 E5        30.03S
ZEPHYRHILLS    FAIR      59  57  94 CALM      30.04R
CLEARWATER AIR FAIR      73  70  88 SE7       30.01S
ST PETE CLEARW SUNNY     74  68  81 SE9       30.02R
TAMPA INTL     MOSUNNY   73  67  81 E6        30.02R
TAMPA EXEC     MOSUNNY   68  64  88 CALM      30.03S
PLANT CITY     PTSUNNY   70  68  94 E3        30.05R
MACDILL AFB    SUNNY     72  71  97 E9        30.02R
PETER O KNIGHT MOSUNNY   73  70  88 E5        30.03R
ST PETERSBURG  SUNNY     74  69  85 SE13      30.01R
SARASOTA       SUNNY     72  68  87 E8        30.00R
VENICE         NOT AVBL

STATION/POSITION SKY/WX   TEMP    WIND        PRES    WAVE   SWELL
                          AIR SEA DIR/SP/G            HT/PER HT/PER
                          (F)     (DEG/KT/KT) (MB)    (FT/S) (FT/S)
27.3N   84.2W                 79                N/A     4/ 6
CLEARWATER BEACH           74 80  120/  6/ 10 1016.0R
MIDDLE TAMPA BAY NOT AVBL
VENICE                     72 80   90/  6/  7 1015.7R

$$
FLZ066-069-070-075>078-162-262-165-265-011300-
SOUTHWEST FLORIDA AND KEYS

CITY           SKY/WX    TMP DP  RH WIND       PRES   REMARKS
PUNTA GORDA    SUNNY     69  69 100 E7        30.02R
FT MYERS       SUNNY     72  68  87 E8        29.99R
SOUTHWEST INTL SUNNY     71  67  87 E7        30.00R
NAPLES         MOSUNNY   73  69  87 E9        29.99R
MARCO ISLAND   CLOUDY    72  64  78 E5        29.99R
MARATHON       MOSUNNY   79  70  74 SE12G20   29.98R
KEY WEST NAS   MOSUNNY   79  69  71 E15       29.98R
KEY WEST INTL  SUNNY     77  71  82 E16       29.98R

STATION/POSITION SKY/WX   TEMP    WIND        PRES    WAVE   SWELL
                          AIR SEA DIR/SP/G            HT/PER HT/PER
                          (F)     (DEG/KT/KT) (MB)    (FT/S) (FT/S)
NAPLES                        80              1015.0S
26.0N   85.6W              79 80  120/ 16/ 19 1013.7R   5/ 7   2/11
DRY TORTUGAS               78     130/ 13/ 14 1014.6R
SAND KEY                   79     130/ 18/ 21 1015.2R
LONG KEY                   79 80  120/ 14/ 16 1015.7R
MOLASSES REEF              78 81  120/ 16/ 17 1015.7R

$$
FLZ067-068-071>074-168-172>174-011300-
SOUTHEAST FLORIDA

CITY           SKY/WX    TMP DP  RH WIND       PRES   REMARKS
W PALM BEACH   PTSUNNY   78  67  68 SE13      30.03R
BOCA RATON     MOSUNNY   77  68  73 SE9       30.02R
FT LAUDER-EXEC MOSUNNY   78  67  68 E14       30.01R
FT LAUDERDALE  PTSUNNY   79  67  66 E15       30.00R
POMPANO BEACH  MOSUNNY   75  68  78 E12       30.02R
PEMBROKE PINES SUNNY     78  68  71 E13       30.02R
OPA LOCKA      SUNNY     79  69  71 E12       30.01R
MIAMI          MOSUNNY   78  69  73 E15       30.00R
WEST KENDALL   SUNNY     77  69  76 E13       30.00R
HOMESTEAD      MOSUNNY   78  70  75 E12       29.99R

STATION/POSITION SKY/WX   TEMP    WIND        PRES    WAVE   SWELL
                          AIR SEA DIR/SP/G            HT/PER HT/PER
                          (F)     (DEG/KT/KT) (MB)    (FT/S) (FT/S)
PORT EVERGLADES            78     100/  6/ 11 1016.3R
VIRGINIA KEY               78 80  110/ 12/ 16 1015.7R
LAKE WORTH                 77 79  120/ 13/ 15 1016.0R
SETTLEMENT POINT           76     120/ 14/ 17 1017.4R

$$





USA.gov is the U.S. government's official web portal to all federal, state and local government web resources and services.